Flag for Russia Weather past 2 weeks in Pyatigorsk, Russia

Now
55 °F

Drizzle. Low clouds.


Feels Like: 54 °F
Forecast: 51 / 65 °F
Wind: 6 mph from East

Location: Mineral'Nye Vody

Current Time: Sep 22, 2014 at 2:32:31 AM

Latest Report: Sep 22, 2014 at 2:00 AM


Visibility: 4 mi

Pressure: 29.98 "Hg

Humidity: 94%

Dew point: 54 °F

Location of PyatigorskLocation

Historic Weather in Pyatigorsk — Graph

°F

Pyatigorsk temperature yesterday

Maximum temperature yesterday: 54 °F (at 12:30 PM)
Minimum temperature yesterday: 50 °F (at 12:00 AM)
Average temperature yesterday: 52 °F

Past Weeks' High & Low Weather Summary

 TemperatureHumidityPressure
High86 °F (Sep 8, 3:30 PM)100% (Sep 10, 3:00 AM)30.18 "Hg (Sep 10, 3:00 AM)
Low48 °F (Sep 18, 9:00 AM)26% (Sep 17, 3:30 PM)29.80 "Hg (Sep 7, 9:30 PM)
Average64 °F74%29.98 "Hg
* Reported Sep 7 1:00 AM — Sep 22 1:30 AM, Pyatigorsk, Weather by CustomWeather, © 2014

Note: Actual official high and low records may vary slightly from our data, if they occured in-between our weather recording intervals... More about our weather records

Advertising

Pyatigorsk weather history for previous 24 hours

 ConditionsComfort  
Time TempWeatherWind HumidityBarometerVisibility
1:30 AM
Sep 22
55 °FDrizzle. Low clouds.8 mph94%29.98 "Hg4 mi
1:00 AM55 °FDrizzle. Fog.8 mph94%29.95 "Hg2 mi
12:30 AM54 °FDrizzle. Fog.6 mph100%29.98 "Hg3 mi
12:00 AM54 °FDrizzle. Fog.8 mph100%29.98 "Hg3 mi
11:30 PM
Sep 21
54 °FDrizzle. Fog.8 mph100%29.98 "Hg3 mi
11:00 PM54 °FLight rain. Mostly cloudy.6 mph100%29.98 "HgN/A
10:30 PM54 °FLight rain. Mostly cloudy.8 mph100%29.98 "HgN/A
10:00 PM54 °FSprinkles. Mostly cloudy.6 mph100%30.01 "HgN/A
9:30 PM54 °FSprinkles. Mostly cloudy.8 mph100%30.01 "HgN/A
9:00 PM54 °FSprinkles. Mostly cloudy.8 mph100%30.01 "HgN/A
8:30 PM54 °FDrizzle. Fog.6 mph100%30.01 "Hg2 mi
8:00 PM54 °FDrizzle. Fog.8 mph94%30.01 "Hg2 mi
7:30 PM54 °FDrizzle. Fog.6 mph94%30.01 "Hg1 mi
7:00 PM54 °FDrizzle. Fog.6 mph94%30.01 "Hg2 mi
6:30 PM54 °FDrizzle. Fog.8 mph94%30.01 "Hg3 mi
6:00 PM54 °FDrizzle. Fog.8 mph94%30.01 "Hg3 mi
5:30 PM54 °FDrizzle. Fog.8 mph94%30.01 "Hg3 mi
5:00 PM54 °FDrizzle. Fog.8 mph94%30.01 "Hg3 mi
4:30 PM54 °FDrizzle. Low clouds.8 mph94%30.01 "HgN/A
4:00 PM54 °FLow clouds.6 mph94%30.01 "HgN/A
3:30 PM54 °FLow clouds.8 mph94%30.01 "HgN/A
3:00 PM54 °FLow clouds.8 mph94%30.01 "HgN/A
2:30 PM54 °FLow clouds.8 mph94%30.01 "HgN/A
2:00 PM54 °FLow clouds.10 mph94%30.01 "HgN/A
1:30 PM54 °FLow clouds.8 mph94%30.01 "HgN/A
1:00 PM54 °FLow clouds.10 mph94%30.01 "HgN/A
12:30 PM54 °FLow clouds.8 mph94%30.01 "HgN/A
12:00 PM52 °FLow clouds.6 mph94%30.04 "HgN/A
11:30 AM52 °FLow clouds.6 mph94%30.04 "HgN/A
11:00 AM52 °FLow clouds.6 mph94%30.04 "HgN/A
10:30 AM52 °FLow clouds.8 mph94%30.04 "HgN/A
10:00 AM50 °FLow clouds.8 mph100%30.04 "HgN/A
9:30 AM50 °FLow clouds.8 mph100%30.04 "HgN/A
9:00 AM50 °FLow clouds.6 mph100%30.04 "Hg4 mi
8:30 AM50 °FLow clouds.6 mph94%30.04 "Hg4 mi
8:00 AM50 °FLow clouds.3 mph94%30.04 "Hg4 mi
7:30 AM50 °FDrizzle. Fog.6 mph94%30.04 "Hg3 mi
7:00 AM50 °FDrizzle. Fog.3 mph94%30.04 "Hg3 mi
6:30 AM50 °FDrizzle. Fog.3 mph94%30.04 "Hg3 mi
6:00 AM50 °FDrizzle. Fog.3 mph94%30.04 "Hg2 mi
5:30 AM50 °FDrizzle. Low clouds.1 mph94%30.04 "Hg4 mi
5:00 AM50 °FDrizzle. Low clouds.3 mph94%30.04 "Hg4 mi
4:30 AM50 °FDrizzle. Low clouds.3 mph94%30.04 "Hg4 mi
4:00 AM50 °FDrizzle. Low clouds.3 mph94%30.04 "Hg4 mi
3:30 AM50 °FDrizzle. Low clouds.1 mph94%30.04 "Hg4 mi
3:00 AM50 °FDrizzle. Low clouds.3 mph94%30.04 "Hg4 mi
2:30 AM50 °FDrizzle. Low clouds.1 mph94%30.04 "Hg4 mi
2:00 AM50 °FLow clouds.3 mph94%30.04 "HgN/A
Weather by CustomWeather, © 2014

See weather overviewHow to use our weather pages